Time,TemperatureF,DewpointF,PressureIn,WindDirection,WindDirectionDegrees,WindSpeedMPH,WindSpeedGustMPH,Humidity,HourlyPrecipIn,Conditions,Clouds,dailyrainin,SoftwareType,DateUTC
2013-05-10 00:02:00,51.5,49.8,30.21,North,360,2.0,11.0,94,0.00,,,0.00,Weather View 32 v70,2013-05-10 05:02:00,
2013-05-10 00:07:00,51.3,49.6,30.22,NNE,22,2.0,10.0,94,0.00,,,0.00,Weather View 32 v70,2013-05-10 05:07:00,
2013-05-10 00:12:00,51.1,49.7,30.22,NNE,22,1.0,10.0,95,0.00,,,0.00,Weather View 32 v70,2013-05-10 05:12:00,
2013-05-10 00:17:00,51.1,49.7,30.22,NW,315,2.0,10.0,95,0.00,,,0.00,Weather View 32 v70,2013-05-10 05:17:00,
2013-05-10 00:22:00,51.1,50.0,30.22,NW,315,4.0,10.0,96,0.00,,,0.00,Weather View 32 v70,2013-05-10 05:22:00,
2013-05-10 00:27:00,51.2,50.1,30.22,NW,315,5.0,8.0,96,0.00,,,0.00,Weather View 32 v70,2013-05-10 05:27:00,
2013-05-10 00:32:00,51.5,50.7,30.22,NW,315,4.0,8.0,97,0.00,,,0.00,Weather View 32 v70,2013-05-10 05:32:00,
2013-05-10 00:37:00,51.6,50.8,30.22,NW,315,4.0,8.0,97,0.00,,,0.00,Weather View 32 v70,2013-05-10 05:37:00,
2013-05-10 00:42:00,51.5,50.7,30.22,NW,315,4.0,7.0,97,0.00,,,0.00,Weather View 32 v70,2013-05-10 05:42:00,
2013-05-10 00:47:00,51.6,50.8,30.22,NW,315,6.0,7.0,97,0.00,,,0.00,Weather View 32 v70,2013-05-10 05:47:00,
2013-05-10 00:52:00,51.7,50.9,30.22,NW,315,3.0,8.0,97,0.00,,,0.00,Weather View 32 v70,2013-05-10 05:52:00,
2013-05-10 00:57:00,51.7,50.9,30.22,NE,45,2.0,8.0,97,0.00,,,0.00,Weather View 32 v70,2013-05-10 05:57:00,
2013-05-10 01:02:00,51.8,51.0,30.22,NNW,337,2.0,8.0,97,0.00,,,0.00,Weather View 32 v70,2013-05-10 06:02:00,
2013-05-10 01:07:00,51.8,51.0,30.22,North,360,2.0,8.0,97,0.00,,,0.00,Weather View 32 v70,2013-05-10 06:07:00,
2013-05-10 01:12:00,51.8,50.7,30.22,North,360,2.0,8.0,96,0.00,,,0.00,Weather View 32 v70,2013-05-10 06:12:00,
2013-05-10 01:17:00,51.7,50.3,30.22,North,360,4.0,9.0,95,0.00,,,0.00,Weather View 32 v70,2013-05-10 06:17:00,
2013-05-10 01:22:00,51.5,49.8,30.22,NNE,22,6.0,11.0,94,0.00,,,0.00,Weather View 32 v70,2013-05-10 06:22:00,
2013-05-10 01:27:00,51.1,48.9,30.22,North,360,9.0,11.0,92,0.00,,,0.00,Weather View 32 v70,2013-05-10 06:27:00,
2013-05-10 01:32:00,50.7,48.2,30.22,NE,45,4.0,11.0,91,0.00,,,0.00,Weather View 32 v70,2013-05-10 06:32:00,
2013-05-10 01:37:00,50.5,48.0,30.22,North,360,5.0,11.0,91,0.00,,,0.00,Weather View 32 v70,2013-05-10 06:37:00,
2013-05-10 01:42:00,50.3,48.1,30.23,North,360,2.0,11.0,92,0.00,,,0.00,Weather View 32 v70,2013-05-10 06:42:00,
2013-05-10 01:47:00,50.2,48.0,30.23,North,360,2.0,11.0,92,0.00,,,0.00,Weather View 32 v70,2013-05-10 06:47:00,
2013-05-10 01:52:00,49.9,47.7,30.23,NE,45,2.0,11.0,92,0.00,,,0.00,Weather View 32 v70,2013-05-10 06:52:00,
2013-05-10 01:57:00,49.7,47.5,30.22,North,360,3.0,11.0,92,0.00,,,0.00,Weather View 32 v70,2013-05-10 06:57:00,
2013-05-10 02:02:00,49.4,47.2,30.22,North,360,2.0,11.0,92,0.00,,,0.00,Weather View 32 v70,2013-05-10 07:02:00,
2013-05-10 02:07:00,49.2,47.0,30.22,North,360,6.0,11.0,92,0.00,,,0.00,Weather View 32 v70,2013-05-10 07:07:00,
2013-05-10 02:12:00,49.0,47.1,30.22,North,360,3.0,11.0,93,0.00,,,0.00,Weather View 32 v70,2013-05-10 07:12:00,
2013-05-10 02:17:00,48.9,47.0,30.22,NNE,22,2.0,11.0,93,0.00,,,0.00,Weather View 32 v70,2013-05-10 07:17:00,
2013-05-10 02:22:00,48.8,46.9,30.22,NE,45,1.0,11.0,93,0.00,,,0.00,Weather View 32 v70,2013-05-10 07:22:00,
2013-05-10 02:27:00,48.8,47.1,30.22,ENE,67,2.0,11.0,94,0.00,,,0.00,Weather View 32 v70,2013-05-10 07:27:00,
2013-05-10 02:32:00,48.7,47.0,30.22,NE,45,2.0,11.0,94,0.00,,,0.00,Weather View 32 v70,2013-05-10 07:32:00,
2013-05-10 02:37:00,48.6,46.9,30.22,NE,45,1.0,11.0,94,0.00,,,0.00,Weather View 32 v70,2013-05-10 07:37:00,
2013-05-10 02:42:00,48.5,46.8,30.22,NE,45,4.0,11.0,94,0.00,,,0.00,Weather View 32 v70,2013-05-10 07:42:00,
2013-05-10 02:47:00,48.5,46.8,30.23,NE,45,3.0,11.0,94,0.00,,,0.00,Weather View 32 v70,2013-05-10 07:47:00,
2013-05-10 02:52:00,48.4,46.8,30.23,NE,45,1.0,10.0,94,0.00,,,0.00,Weather View 32 v70,2013-05-10 07:52:00,
2013-05-10 02:57:00,48.3,46.7,30.22,NNE,22,3.0,10.0,94,0.00,,,0.00,Weather View 32 v70,2013-05-10 07:57:00,
2013-05-10 03:02:00,48.3,46.7,30.22,North,360,1.0,10.0,94,0.00,,,0.00,Weather View 32 v70,2013-05-10 08:02:00,
2013-05-10 03:07:00,48.3,46.7,30.22,North,360,3.0,10.0,94,0.00,,,0.00,Weather View 32 v70,2013-05-10 08:07:00,
2013-05-10 03:12:00,48.3,46.9,30.22,North,360,2.0,10.0,95,0.00,,,0.00,Weather View 32 v70,2013-05-10 08:12:00,
2013-05-10 03:17:00,48.2,46.8,30.23,North,360,1.0,9.0,95,0.00,,,0.00,Weather View 32 v70,2013-05-10 08:17:00,
2013-05-10 03:22:00,48.1,46.7,30.23,North,360,2.0,9.0,95,0.00,,,0.00,Weather View 32 v70,2013-05-10 08:22:00,
2013-05-10 03:27:00,48.0,46.6,30.23,North,360,1.0,9.0,95,0.00,,,0.00,Weather View 32 v70,2013-05-10 08:27:00,
2013-05-10 03:32:00,47.9,46.3,30.23,NNE,22,3.0,7.0,94,0.00,,,0.00,Weather View 32 v70,2013-05-10 08:32:00,
2013-05-10 03:37:00,47.9,46.3,30.23,NNE,22,2.0,7.0,94,0.00,,,0.00,Weather View 32 v70,2013-05-10 08:37:00,
2013-05-10 03:42:00,47.8,46.2,30.23,NE,45,4.0,7.0,94,0.00,,,0.00,Weather View 32 v70,2013-05-10 08:42:00,
2013-05-10 03:47:00,47.7,45.8,30.23,North,360,2.0,7.0,93,0.00,,,0.00,Weather View 32 v70,2013-05-10 08:47:00,
2013-05-10 03:52:00,47.5,45.6,30.23,NNE,22,1.0,7.0,93,0.00,,,0.00,Weather View 32 v70,2013-05-10 08:52:00,
2013-05-10 03:57:00,47.5,45.9,30.23,North,360,1.0,7.0,94,0.00,,,0.00,Weather View 32 v70,2013-05-10 08:57:00,
2013-05-10 04:02:00,47.5,46.1,30.23,NNE,22,2.0,7.0,95,0.00,,,0.00,Weather View 32 v70,2013-05-10 09:02:00,
2013-05-10 04:07:00,47.4,45.8,30.23,NNE,22,2.0,7.0,94,0.00,,,0.00,Weather View 32 v70,2013-05-10 09:07:00,
2013-05-10 04:12:00,47.4,45.8,30.23,North,360,2.0,7.0,94,0.00,,,0.00,Weather View 32 v70,2013-05-10 09:12:00,
2013-05-10 04:17:00,47.4,46.0,30.23,NW,315,4.0,7.0,95,0.00,,,0.00,Weather View 32 v70,2013-05-10 09:17:00,
2013-05-10 04:22:00,47.3,45.9,30.24,NW,315,6.0,7.0,95,0.00,,,0.00,Weather View 32 v70,2013-05-10 09:22:00,
2013-05-10 04:27:00,47.3,46.2,30.24,North,360,2.0,7.0,96,0.00,,,0.00,Weather View 32 v70,2013-05-10 09:27:00,
2013-05-10 04:32:00,47.2,46.1,30.24,NW,315,5.0,7.0,96,0.00,,,0.00,Weather View 32 v70,2013-05-10 09:32:00,
2013-05-10 04:37:00,47.1,46.0,30.24,NW,315,3.0,9.0,96,0.00,,,0.00,Weather View 32 v70,2013-05-10 09:37:00,
2013-05-10 04:42:00,47.0,46.2,30.24,NW,315,4.0,9.0,97,0.00,,,0.00,Weather View 32 v70,2013-05-10 09:42:00,
2013-05-10 04:47:00,47.0,46.2,30.24,NNW,337,2.0,9.0,97,0.00,,,0.00,Weather View 32 v70,2013-05-10 09:47:00,
2013-05-10 04:52:00,46.9,46.1,30.24,NW,315,2.0,9.0,97,0.00,,,0.00,Weather View 32 v70,2013-05-10 09:52:00,
2013-05-10 04:57:00,46.9,46.1,30.24,NW,315,2.0,9.0,97,0.00,,,0.00,Weather View 32 v70,2013-05-10 09:57:00,
2013-05-10 05:02:00,46.7,45.6,30.24,North,360,3.0,9.0,96,0.00,,,0.00,Weather View 32 v70,2013-05-10 10:02:00,
2013-05-10 05:07:00,46.6,45.5,30.24,North,360,2.0,9.0,96,0.00,,,0.00,Weather View 32 v70,2013-05-10 10:07:00,
2013-05-10 05:12:00,46.5,45.4,30.24,North,360,0.0,9.0,96,0.00,,,0.00,Weather View 32 v70,2013-05-10 10:12:00,
2013-05-10 05:17:00,46.5,45.7,30.24,North,360,7.0,9.0,97,0.00,,,0.00,Weather View 32 v70,2013-05-10 10:17:00,
2013-05-10 05:22:00,46.4,45.6,30.24,North,360,4.0,9.0,97,0.00,,,0.00,Weather View 32 v70,2013-05-10 10:22:00,
2013-05-10 05:27:00,46.4,45.6,30.24,North,360,1.0,9.0,97,0.00,,,0.00,Weather View 32 v70,2013-05-10 10:27:00,
2013-05-10 05:32:00,46.3,45.5,30.24,North,360,2.0,9.0,97,0.00,,,0.00,Weather View 32 v70,2013-05-10 10:32:00,
2013-05-10 05:37:00,46.2,45.4,30.24,North,360,4.0,8.0,97,0.00,,,0.00,Weather View 32 v70,2013-05-10 10:37:00,
2013-05-10 05:42:00,46.1,45.3,30.24,NW,315,1.0,8.0,97,0.00,,,0.00,Weather View 32 v70,2013-05-10 10:42:00,
2013-05-10 05:48:00,45.9,45.1,30.24,NNW,337,2.0,8.0,97,0.00,,,0.00,Weather View 32 v70,2013-05-10 10:48:00,
2013-05-10 05:53:00,45.8,45.0,30.24,NNW,337,1.0,8.0,97,0.00,,,0.00,Weather View 32 v70,2013-05-10 10:53:00,
2013-05-10 05:58:00,45.7,44.9,30.24,North,360,3.0,8.0,97,0.00,,,0.00,Weather View 32 v70,2013-05-10 10:58:00,
2013-05-10 06:03:00,45.6,44.8,30.24,NNE,22,4.0,8.0,97,0.00,,,0.00,Weather View 32 v70,2013-05-10 11:03:00,
2013-05-10 06:08:00,45.5,44.7,30.23,NNE,22,6.0,8.0,97,0.00,,,0.00,Weather View 32 v70,2013-05-10 11:08:00,
2013-05-10 06:13:00,45.2,44.4,30.23,NW,315,2.0,8.0,97,0.00,,,0.00,Weather View 32 v70,2013-05-10 11:13:00,
2013-05-10 06:18:00,44.9,43.8,30.23,North,360,1.0,8.0,96,0.00,,,0.00,Weather View 32 v70,2013-05-10 11:18:00,
2013-05-10 06:23:00,44.7,43.6,30.23,North,360,1.0,8.0,96,0.00,,,0.00,Weather View 32 v70,2013-05-10 11:23:00,
2013-05-10 06:28:00,44.5,43.4,30.23,North,360,2.0,8.0,96,0.00,,,0.00,Weather View 32 v70,2013-05-10 11:28:00,
2013-05-10 06:33:00,44.3,43.2,30.23,North,360,0.0,8.0,96,0.00,,,0.00,Weather View 32 v70,2013-05-10 11:33:00,
2013-05-10 06:38:00,44.3,43.2,30.23,North,360,2.0,7.0,96,0.00,,,0.00,Weather View 32 v70,2013-05-10 11:38:00,
2013-05-10 06:43:00,44.2,43.1,30.24,NNE,22,2.0,7.0,96,0.00,,,0.00,Weather View 32 v70,2013-05-10 11:43:00,
2013-05-10 06:48:00,44.3,43.2,30.24,North,360,2.0,7.0,96,0.00,,,0.00,Weather View 32 v70,2013-05-10 11:48:00,
2013-05-10 06:53:00,44.4,43.3,30.24,North,360,4.0,7.0,96,0.00,,,0.00,Weather View 32 v70,2013-05-10 11:53:00,
2013-05-10 06:58:00,44.4,43.3,30.24,North,360,2.0,7.0,96,0.00,,,0.00,Weather View 32 v70,2013-05-10 11:58:00,
2013-05-10 07:03:00,44.5,43.4,30.25,North,360,2.0,7.0,96,0.00,,,0.00,Weather View 32 v70,2013-05-10 12:03:00,
2013-05-10 07:08:00,44.5,43.2,30.25,North,360,2.0,7.0,95,0.00,,,0.00,Weather View 32 v70,2013-05-10 12:08:00,
2013-05-10 07:13:00,44.6,43.0,30.25,North,360,4.0,6.0,94,0.00,,,0.00,Weather View 32 v70,2013-05-10 12:13:00,
2013-05-10 07:18:00,44.6,42.1,30.26,NW,315,0.0,7.0,91,0.00,,,0.00,Weather View 32 v70,2013-05-10 12:18:00,
2013-05-10 07:23:00,44.7,41.9,30.25,NNE,22,2.0,7.0,90,0.00,,,0.00,Weather View 32 v70,2013-05-10 12:23:00,
2013-05-10 07:28:00,44.7,41.4,30.26,NW,315,4.0,7.0,88,0.00,,,0.00,Weather View 32 v70,2013-05-10 12:28:00,
2013-05-10 07:33:00,44.8,41.2,30.26,NNW,337,2.0,7.0,87,0.00,,,0.00,Weather View 32 v70,2013-05-10 12:33:00,
2013-05-10 07:38:00,44.8,40.9,30.26,North,360,2.0,7.0,86,0.00,,,0.00,Weather View 32 v70,2013-05-10 12:38:00,
2013-05-10 07:43:00,44.9,41.0,30.26,NW,315,4.0,7.0,86,0.00,,,0.00,Weather View 32 v70,2013-05-10 12:43:00,
2013-05-10 07:48:00,44.9,40.0,30.26,NW,315,3.0,7.0,83,0.00,,,0.00,Weather View 32 v70,2013-05-10 12:48:00,
2013-05-10 07:53:00,44.8,39.3,30.26,North,360,1.0,7.0,81,0.00,,,0.00,Weather View 32 v70,2013-05-10 12:53:00,
2013-05-10 07:58:00,44.9,39.7,30.26,NW,315,6.0,7.0,82,0.00,,,0.00,Weather View 32 v70,2013-05-10 12:58:00,
2013-05-10 08:03:00,44.9,39.7,30.27,NW,315,4.0,7.0,82,0.00,,,0.00,Weather View 32 v70,2013-05-10 13:03:00,
2013-05-10 08:08:00,44.9,40.7,30.26,NW,315,4.0,7.0,85,0.00,,,0.00,Weather View 32 v70,2013-05-10 13:08:00,
2013-05-10 08:13:00,44.9,39.7,30.26,NW,315,4.0,8.0,82,0.00,,,0.00,Weather View 32 v70,2013-05-10 13:13:00,
2013-05-10 08:19:00,44.9,39.1,30.26,NW,315,3.0,8.0,80,0.00,,,0.00,Weather View 32 v70,2013-05-10 13:19:00,
2013-05-10 08:24:00,45.2,39.7,30.26,NW,315,4.0,8.0,81,0.00,,,0.00,Weather View 32 v70,2013-05-10 13:24:00,
2013-05-10 08:29:00,45.3,39.5,30.26,NW,315,6.0,8.0,80,0.00,,,0.00,Weather View 32 v70,2013-05-10 13:29:00,
2013-05-10 08:34:00,45.3,39.8,30.26,North,360,1.0,8.0,81,0.00,,,0.00,Weather View 32 v70,2013-05-10 13:34:00,
2013-05-10 08:39:00,45.4,39.9,30.26,NW,315,4.0,8.0,81,0.00,,,0.00,Weather View 32 v70,2013-05-10 13:39:00,
2013-05-10 08:44:00,45.4,39.6,30.26,NW,315,6.0,9.0,80,0.00,,,0.00,Weather View 32 v70,2013-05-10 13:44:00,
2013-05-10 08:49:00,45.4,39.6,30.26,NW,315,6.0,9.0,80,0.00,,,0.00,Weather View 32 v70,2013-05-10 13:49:00,
2013-05-10 08:54:00,45.6,40.4,30.26,NW,315,2.0,9.0,82,0.00,,,0.00,Weather View 32 v70,2013-05-10 13:54:00,
2013-05-10 08:59:00,45.7,39.6,30.26,NW,315,5.0,11.0,79,0.00,,,0.00,Weather View 32 v70,2013-05-10 13:59:00,
2013-05-10 09:04:00,45.9,40.1,30.27,NNW,337,2.0,11.0,80,0.00,,,0.00,Weather View 32 v70,2013-05-10 14:04:00,
2013-05-10 09:09:00,45.9,40.1,30.26,NW,315,6.0,11.0,80,0.00,,,0.00,Weather View 32 v70,2013-05-10 14:09:00,
2013-05-10 09:14:00,46.2,41.3,30.27,NW,315,8.0,11.0,83,0.00,,,0.00,Weather View 32 v70,2013-05-10 14:14:00,
2013-05-10 09:19:00,46.3,40.8,30.27,NW,315,6.0,11.0,81,0.00,,,0.00,Weather View 32 v70,2013-05-10 14:19:00,
2013-05-10 09:24:00,46.4,40.2,30.27,NW,315,8.0,11.0,79,0.00,,,0.00,Weather View 32 v70,2013-05-10 14:24:00,
2013-05-10 09:29:00,46.6,41.4,30.27,NW,315,4.0,11.0,82,0.00,,,0.00,Weather View 32 v70,2013-05-10 14:29:00,
2013-05-10 09:34:00,46.9,41.0,30.27,West,270,6.0,11.0,80,0.00,,,0.00,Weather View 32 v70,2013-05-10 14:34:00,
2013-05-10 09:39:00,46.9,41.0,30.27,West,270,3.0,11.0,80,0.00,,,0.00,Weather View 32 v70,2013-05-10 14:39:00,
2013-05-10 09:44:00,47.2,41.0,30.27,NW,315,5.0,11.0,79,0.00,,,0.00,Weather View 32 v70,2013-05-10 14:44:00,
2013-05-10 09:49:00,47.5,42.6,30.27,NNE,22,3.0,11.0,83,0.00,,,0.00,Weather View 32 v70,2013-05-10 14:49:00,
2013-05-10 09:54:00,47.8,41.9,30.27,NW,315,9.0,11.0,80,0.00,,,0.00,Weather View 32 v70,2013-05-10 14:54:00,
2013-05-10 09:59:00,47.8,41.9,30.27,NW,315,5.0,10.0,80,0.00,,,0.00,Weather View 32 v70,2013-05-10 14:59:00,
2013-05-10 10:04:00,48.0,41.5,30.27,NW,315,4.0,10.0,78,0.00,,,0.00,Weather View 32 v70,2013-05-10 15:04:00,
2013-05-10 10:09:00,48.3,42.4,30.27,WNW,292,6.0,10.0,80,0.00,,,0.00,Weather View 32 v70,2013-05-10 15:09:00,
2013-05-10 10:14:00,48.5,41.6,30.27,NW,315,7.0,10.0,77,0.00,,,0.00,Weather View 32 v70,2013-05-10 15:14:00,
2013-05-10 10:19:00,48.7,42.5,30.27,NW,315,6.0,11.0,79,0.00,,,0.00,Weather View 32 v70,2013-05-10 15:19:00,
2013-05-10 10:24:00,49.0,42.8,30.27,WNW,292,4.0,11.0,79,0.00,,,0.00,Weather View 32 v70,2013-05-10 15:24:00,
2013-05-10 10:29:00,49.6,44.0,30.27,NW,315,8.0,12.0,81,0.00,,,0.00,Weather View 32 v70,2013-05-10 15:29:00,
2013-05-10 10:34:00,49.7,43.4,30.27,NW,315,7.0,12.0,79,0.00,,,0.00,Weather View 32 v70,2013-05-10 15:34:00,
2013-05-10 10:39:00,50.3,44.0,30.26,NW,315,7.0,12.0,79,0.00,,,0.00,Weather View 32 v70,2013-05-10 15:39:00,
2013-05-10 10:44:00,50.5,43.9,30.26,NW,315,5.0,12.0,78,0.00,,,0.00,Weather View 32 v70,2013-05-10 15:44:00,
2013-05-10 10:49:00,50.9,44.6,30.26,NW,315,5.0,12.0,79,0.00,,,0.00,Weather View 32 v70,2013-05-10 15:49:00,
2013-05-10 10:54:00,51.5,45.2,30.27,NW,315,6.0,12.0,79,0.00,,,0.00,Weather View 32 v70,2013-05-10 15:54:00,
2013-05-10 10:59:00,51.9,44.9,30.26,NW,315,2.0,12.0,77,0.00,,,0.00,Weather View 32 v70,2013-05-10 15:59:00,
2013-05-10 11:05:00,52.3,45.6,30.26,NW,315,4.0,12.0,78,0.00,,,0.00,Weather View 32 v70,2013-05-10 16:05:00,
2013-05-10 11:10:00,52.9,45.9,30.27,NW,315,4.0,12.0,77,0.00,,,0.00,Weather View 32 v70,2013-05-10 16:10:00,
2013-05-10 11:15:00,53.4,46.4,30.27,NW,315,4.0,12.0,77,0.00,,,0.00,Weather View 32 v70,2013-05-10 16:15:00,
2013-05-10 11:20:00,53.5,46.1,30.27,WNW,292,2.0,12.0,76,0.00,,,0.00,Weather View 32 v70,2013-05-10 16:20:00,
2013-05-10 11:25:00,53.9,46.5,30.27,NW,315,4.0,12.0,76,0.00,,,0.00,Weather View 32 v70,2013-05-10 16:25:00,
2013-05-10 11:30:00,54.6,46.8,30.27,NW,315,6.0,12.0,75,0.00,,,0.00,Weather View 32 v70,2013-05-10 16:30:00,
2013-05-10 11:35:00,54.9,47.1,30.27,NW,315,9.0,12.0,75,0.00,,,0.00,Weather View 32 v70,2013-05-10 16:35:00,
2013-05-10 11:40:00,54.9,47.1,30.27,NW,315,6.0,11.0,75,0.00,,,0.00,Weather View 32 v70,2013-05-10 16:40:00,
2013-05-10 11:45:00,55.3,47.8,30.27,NW,315,9.0,11.0,76,0.00,,,0.00,Weather View 32 v70,2013-05-10 16:45:00,
2013-05-10 11:50:00,55.7,47.5,30.27,NW,315,6.0,11.0,74,0.00,,,0.00,Weather View 32 v70,2013-05-10 16:50:00,
2013-05-10 11:55:00,55.9,48.4,30.27,WNW,292,10.0,12.0,76,0.00,,,0.00,Weather View 32 v70,2013-05-10 16:55:00,
2013-05-10 12:00:00,55.9,47.7,30.27,WNW,292,6.0,13.0,74,0.00,,,0.00,Weather View 32 v70,2013-05-10 17:00:00,
2013-05-10 12:05:00,56.4,50.0,30.27,West,270,8.0,13.0,79,0.00,,,0.00,Weather View 32 v70,2013-05-10 17:05:00,
2013-05-10 12:10:00,56.5,49.0,30.26,NW,315,8.0,14.0,76,0.00,,,0.00,Weather View 32 v70,2013-05-10 17:10:00,
2013-05-10 12:15:00,56.5,48.3,30.26,WNW,292,7.0,14.0,74,0.00,,,0.00,Weather View 32 v70,2013-05-10 17:15:00,
2013-05-10 12:20:00,56.9,48.7,30.26,WNW,292,2.0,14.0,74,0.00,,,0.00,Weather View 32 v70,2013-05-10 17:20:00,
2013-05-10 12:25:00,57.3,49.1,30.26,NW,315,9.0,14.0,74,0.00,,,0.00,Weather View 32 v70,2013-05-10 17:25:00,
2013-05-10 12:30:00,57.4,49.5,30.26,WNW,292,8.0,14.0,75,0.00,,,0.00,Weather View 32 v70,2013-05-10 17:30:00,
2013-05-10 12:35:00,57.4,49.2,30.26,NW,315,10.0,14.0,74,0.00,,,0.00,Weather View 32 v70,2013-05-10 17:35:00,
2013-05-10 12:40:00,57.7,49.5,30.26,WNW,292,8.0,14.0,74,0.00,,,0.00,Weather View 32 v70,2013-05-10 17:40:00,
2013-05-10 12:45:00,57.8,49.5,30.26,WNW,292,9.0,16.0,74,0.00,,,0.00,Weather View 32 v70,2013-05-10 17:45:00,
2013-05-10 12:50:00,58.4,50.1,30.26,NW,315,10.0,16.0,74,0.00,,,0.00,Weather View 32 v70,2013-05-10 17:50:00,
2013-05-10 12:55:00,58.9,51.0,30.26,West,270,11.0,16.0,75,0.00,,,0.00,Weather View 32 v70,2013-05-10 17:55:00,
2013-05-10 13:00:00,59.3,51.7,30.26,NW,315,12.0,16.0,76,0.00,,,0.00,Weather View 32 v70,2013-05-10 18:00:00,
2013-05-10 13:05:00,59.4,51.5,30.26,SW,225,1.0,16.0,75,0.00,,,0.00,Weather View 32 v70,2013-05-10 18:05:00,
2013-05-10 13:10:00,59.9,51.6,30.26,West,270,2.0,16.0,74,0.00,,,0.00,Weather View 32 v70,2013-05-10 18:10:00,
2013-05-10 13:15:00,60.1,51.8,30.26,NW,315,9.0,16.0,74,0.00,,,0.00,Weather View 32 v70,2013-05-10 18:15:00,
2013-05-10 13:20:00,60.1,51.0,30.25,NW,315,12.0,16.0,72,0.00,,,0.00,Weather View 32 v70,2013-05-10 18:20:00,
2013-05-10 13:25:00,60.3,50.8,30.25,NW,315,6.0,16.0,71,0.00,,,0.00,Weather View 32 v70,2013-05-10 18:25:00,
2013-05-10 13:30:00,60.3,50.1,30.26,West,270,6.0,16.0,69,0.00,,,0.00,Weather View 32 v70,2013-05-10 18:30:00,
2013-05-10 13:35:00,60.5,50.3,30.26,West,270,7.0,16.0,69,0.00,,,0.00,Weather View 32 v70,2013-05-10 18:35:00,
2013-05-10 13:40:00,60.7,51.2,30.25,West,270,4.0,17.0,71,0.00,,,0.00,Weather View 32 v70,2013-05-10 18:40:00,
2013-05-10 13:45:00,60.8,49.7,30.25,NW,315,7.0,17.0,67,0.00,,,0.00,Weather View 32 v70,2013-05-10 18:45:00,
2013-05-10 13:51:00,61.3,49.8,30.25,NW,315,7.0,17.0,66,0.00,,,0.00,Weather View 32 v70,2013-05-10 18:51:00,
2013-05-10 13:56:00,61.7,50.6,30.24,West,270,7.0,17.0,67,0.00,,,0.00,Weather View 32 v70,2013-05-10 18:56:00,
2013-05-10 14:01:00,61.9,48.7,30.24,NE,45,1.0,17.0,62,0.00,,,0.00,Weather View 32 v70,2013-05-10 19:01:00,
2013-05-10 14:06:00,62.3,50.4,30.24,NW,315,7.0,17.0,65,0.00,,,0.00,Weather View 32 v70,2013-05-10 19:06:00,
2013-05-10 14:11:00,62.4,47.8,30.24,WNW,292,5.0,17.0,59,0.00,,,0.00,Weather View 32 v70,2013-05-10 19:11:00,
2013-05-10 14:16:00,62.9,48.3,30.24,NW,315,13.0,17.0,59,0.00,,,0.00,Weather View 32 v70,2013-05-10 19:16:00,
2013-05-10 14:21:00,63.1,47.6,30.24,NNE,22,1.0,17.0,57,0.00,,,0.00,Weather View 32 v70,2013-05-10 19:21:00,
2013-05-10 14:26:00,64.1,49.4,30.24,WNW,292,9.0,17.0,59,0.00,,,0.00,Weather View 32 v70,2013-05-10 19:26:00,
2013-05-10 14:31:00,63.6,48.5,30.24,NW,315,12.0,17.0,58,0.00,,,0.00,Weather View 32 v70,2013-05-10 19:31:00,
2013-05-10 14:36:00,63.3,49.1,30.24,NW,315,4.0,17.0,60,0.00,,,0.00,Weather View 32 v70,2013-05-10 19:36:00,
2013-05-10 14:41:00,63.4,48.3,30.24,WNW,292,11.0,17.0,58,0.00,,,0.00,Weather View 32 v70,2013-05-10 19:41:00,
2013-05-10 14:46:00,63.4,48.8,30.24,NW,315,6.0,19.0,59,0.00,,,0.00,Weather View 32 v70,2013-05-10 19:46:00,
2013-05-10 14:51:00,63.7,48.1,30.24,West,270,6.0,19.0,57,0.00,,,0.00,Weather View 32 v70,2013-05-10 19:51:00,
2013-05-10 14:56:00,63.7,47.2,30.24,NW,315,13.0,19.0,55,0.00,,,0.00,Weather View 32 v70,2013-05-10 19:56:00,
2013-05-10 15:01:00,63.7,46.7,30.24,NW,315,6.0,19.0,54,0.00,,,0.00,Weather View 32 v70,2013-05-10 20:01:00,
2013-05-10 15:06:00,63.6,46.6,30.24,NW,315,3.0,19.0,54,0.00,,,0.00,Weather View 32 v70,2013-05-10 20:06:00,
2013-05-10 15:11:00,63.9,47.9,30.24,NW,315,6.0,19.0,56,0.00,,,0.00,Weather View 32 v70,2013-05-10 20:11:00,
2013-05-10 15:16:00,64.7,49.5,30.24,WNW,292,2.0,19.0,58,0.00,,,0.00,Weather View 32 v70,2013-05-10 20:16:00,
2013-05-10 15:21:00,64.5,47.9,30.23,WNW,292,10.0,19.0,55,0.00,,,0.00,Weather View 32 v70,2013-05-10 20:21:00,
2013-05-10 15:26:00,64.7,50.0,30.23,NW,315,12.0,19.0,59,0.00,,,0.00,Weather View 32 v70,2013-05-10 20:26:00,
2013-05-10 15:31:00,64.8,48.2,30.23,North,360,11.0,19.0,55,0.00,,,0.00,Weather View 32 v70,2013-05-10 20:31:00,
2013-05-10 15:36:00,64.9,46.8,30.23,WNW,292,11.0,19.0,52,0.00,,,0.00,Weather View 32 v70,2013-05-10 20:36:00,
2013-05-10 15:41:00,64.9,47.3,30.22,NW,315,11.0,19.0,53,0.00,,,0.00,Weather View 32 v70,2013-05-10 20:41:00,
2013-05-10 15:46:00,65.1,48.5,30.22,West,270,7.0,18.0,55,0.00,,,0.00,Weather View 32 v70,2013-05-10 20:46:00,
2013-05-10 15:51:00,65.3,46.7,30.22,WNW,292,6.0,18.0,51,0.00,,,0.00,Weather View 32 v70,2013-05-10 20:51:00,
2013-05-10 15:56:00,65.6,45.9,30.22,NW,315,7.0,18.0,49,0.00,,,0.00,Weather View 32 v70,2013-05-10 20:56:00,
2013-05-10 16:01:00,66.2,45.9,30.21,SW,225,4.0,18.0,48,0.00,,,0.00,Weather View 32 v70,2013-05-10 21:01:00,
2013-05-10 16:06:00,66.1,45.8,30.21,West,270,7.0,18.0,48,0.00,,,0.00,Weather View 32 v70,2013-05-10 21:06:00,
2013-05-10 16:11:00,65.9,46.2,30.21,NW,315,9.0,18.0,49,0.00,,,0.00,Weather View 32 v70,2013-05-10 21:11:00,
2013-05-10 16:16:00,66.1,45.8,30.21,West,270,6.0,18.0,48,0.00,,,0.00,Weather View 32 v70,2013-05-10 21:16:00,
2013-05-10 16:21:00,66.0,46.8,30.21,WNW,292,7.0,18.0,50,0.00,,,0.00,Weather View 32 v70,2013-05-10 21:21:00,
2013-05-10 16:26:00,66.1,45.8,30.20,NNW,337,8.0,17.0,48,0.00,,,0.00,Weather View 32 v70,2013-05-10 21:26:00,
2013-05-10 16:31:00,66.3,47.1,30.20,WNW,292,4.0,17.0,50,0.00,,,0.00,Weather View 32 v70,2013-05-10 21:31:00,
2013-05-10 16:36:00,66.5,47.2,30.20,West,270,5.0,17.0,50,0.00,,,0.00,Weather View 32 v70,2013-05-10 21:36:00,
2013-05-10 16:42:00,66.8,48.6,30.20,WNW,292,6.0,17.0,52,0.00,,,0.00,Weather View 32 v70,2013-05-10 21:42:00,
2013-05-10 16:47:00,66.7,46.3,30.20,West,270,6.0,17.0,48,0.00,,,0.00,Weather View 32 v70,2013-05-10 21:47:00,
2013-05-10 16:52:00,67.1,46.7,30.20,NW,315,10.0,17.0,48,0.00,,,0.00,Weather View 32 v70,2013-05-10 21:52:00,
2013-05-10 16:57:00,67.1,46.1,30.20,West,270,9.0,17.0,47,0.00,,,0.00,Weather View 32 v70,2013-05-10 21:57:00,
2013-05-10 16:58:00,66.9,46.0,30.20,West,270,7.0,17.0,47,0.00,,,0.00,Weather View 32 v70,2013-05-10 21:58:00,
2013-05-10 17:03:00,66.9,47.6,30.20,West,270,5.0,17.0,50,0.00,,,0.00,Weather View 32 v70,2013-05-10 22:03:00,
2013-05-10 17:08:00,67.1,46.7,30.19,West,270,2.0,17.0,48,0.00,,,0.00,Weather View 32 v70,2013-05-10 22:08:00,
2013-05-10 17:13:00,67.2,47.9,30.19,NW,315,16.0,17.0,50,0.00,,,0.00,Weather View 32 v70,2013-05-10 22:13:00,
2013-05-10 17:18:00,67.2,46.8,30.19,WNW,292,4.0,17.0,48,0.00,,,0.00,Weather View 32 v70,2013-05-10 22:18:00,
2013-05-10 17:23:00,67.4,47.0,30.19,West,270,11.0,17.0,48,0.00,,,0.00,Weather View 32 v70,2013-05-10 22:23:00,
2013-05-10 17:28:00,67.5,47.1,30.18,WNW,292,6.0,17.0,48,0.00,,,0.00,Weather View 32 v70,2013-05-10 22:28:00,
2013-05-10 17:33:00,67.7,46.7,30.18,West,270,5.0,17.0,47,0.00,,,0.00,Weather View 32 v70,2013-05-10 22:33:00,
2013-05-10 17:39:00,67.9,45.1,30.18,NW,315,11.0,17.0,44,0.00,,,0.00,Weather View 32 v70,2013-05-10 22:39:00,
2013-05-10 17:44:00,67.9,45.7,30.18,West,270,5.0,17.0,45,0.00,,,0.00,Weather View 32 v70,2013-05-10 22:44:00,
2013-05-10 17:49:00,67.7,45.5,30.18,NW,315,13.0,17.0,45,0.00,,,0.00,Weather View 32 v70,2013-05-10 22:49:00,
2013-05-10 17:54:00,67.6,46.6,30.18,West,270,9.0,17.0,47,0.00,,,0.00,Weather View 32 v70,2013-05-10 22:54:00,
2013-05-10 17:59:00,67.9,46.9,30.18,NW,315,12.0,17.0,47,0.00,,,0.00,Weather View 32 v70,2013-05-10 22:59:00,
2013-05-10 18:04:00,67.9,45.1,30.18,WSW,247,2.0,17.0,44,0.00,,,0.00,Weather View 32 v70,2013-05-10 23:04:00,
2013-05-10 18:09:00,68.1,45.9,30.18,WNW,292,9.0,18.0,45,0.00,,,0.00,Weather View 32 v70,2013-05-10 23:09:00,
2013-05-10 18:14:00,68.1,45.3,30.18,West,270,6.0,18.0,44,0.00,,,0.00,Weather View 32 v70,2013-05-10 23:14:00,
2013-05-10 18:19:00,68.1,45.9,30.18,West,270,5.0,18.0,45,0.00,,,0.00,Weather View 32 v70,2013-05-10 23:19:00,
2013-05-10 18:24:00,68.3,44.9,30.18,West,270,9.0,18.0,43,0.00,,,0.00,Weather View 32 v70,2013-05-10 23:24:00,
2013-05-10 18:29:00,68.2,46.6,30.17,NW,315,11.0,18.0,46,0.00,,,0.00,Weather View 32 v70,2013-05-10 23:29:00,
2013-05-10 18:34:00,68.1,46.5,30.17,West,270,6.0,18.0,46,0.00,,,0.00,Weather View 32 v70,2013-05-10 23:34:00,
2013-05-10 18:39:00,68.1,44.7,30.17,West,270,2.0,18.0,43,0.00,,,0.00,Weather View 32 v70,2013-05-10 23:39:00,
2013-05-10 18:44:00,68.3,44.9,30.17,WNW,292,6.0,18.0,43,0.00,,,0.00,Weather View 32 v70,2013-05-10 23:44:00,
2013-05-10 18:49:00,68.1,46.5,30.16,WNW,292,7.0,18.0,46,0.00,,,0.00,Weather View 32 v70,2013-05-10 23:49:00,
2013-05-10 18:54:00,68.4,46.2,30.16,NW,315,7.0,18.0,45,0.00,,,0.00,Weather View 32 v70,2013-05-10 23:54:00,
2013-05-10 18:59:00,68.3,44.9,30.16,West,270,7.0,18.0,43,0.00,,,0.00,Weather View 32 v70,2013-05-10 23:59:00,
2013-05-10 19:04:00,68.1,44.7,30.16,West,270,4.0,18.0,43,0.00,,,0.00,Weather View 32 v70,2013-05-11 00:04:00,
2013-05-10 19:09:00,67.9,46.3,30.16,West,270,4.0,14.0,46,0.00,,,0.00,Weather View 32 v70,2013-05-11 00:09:00,
2013-05-10 19:14:00,67.9,46.3,30.16,West,270,6.0,14.0,46,0.00,,,0.00,Weather View 32 v70,2013-05-11 00:14:00,
2013-05-10 19:19:00,67.9,44.5,30.16,West,270,7.0,14.0,43,0.00,,,0.00,Weather View 32 v70,2013-05-11 00:19:00,
2013-05-10 19:24:00,67.8,44.4,30.16,NW,315,9.0,14.0,43,0.00,,,0.00,Weather View 32 v70,2013-05-11 00:24:00,
2013-05-10 19:29:00,67.8,44.4,30.16,West,270,6.0,14.0,43,0.00,,,0.00,Weather View 32 v70,2013-05-11 00:29:00,
2013-05-10 19:34:00,67.6,45.4,30.16,West,270,7.0,14.0,45,0.00,,,0.00,Weather View 32 v70,2013-05-11 00:34:00,
2013-05-10 19:39:00,67.6,44.9,30.17,West,270,6.0,14.0,44,0.00,,,0.00,Weather View 32 v70,2013-05-11 00:39:00,
2013-05-10 19:44:00,67.3,45.8,30.17,West,270,9.0,14.0,46,0.00,,,0.00,Weather View 32 v70,2013-05-11 00:44:00,
2013-05-10 19:49:00,67.2,44.5,30.17,West,270,5.0,14.0,44,0.00,,,0.00,Weather View 32 v70,2013-05-11 00:49:00,
2013-05-10 19:54:00,67.1,45.0,30.17,West,270,2.0,14.0,45,0.00,,,0.00,Weather View 32 v70,2013-05-11 00:54:00,
2013-05-10 19:59:00,66.9,45.4,30.17,West,270,4.0,14.0,46,0.00,,,0.00,Weather View 32 v70,2013-05-11 00:59:00,
2013-05-10 20:04:00,66.6,45.7,30.17,West,270,3.0,14.0,47,0.00,,,0.00,Weather View 32 v70,2013-05-11 01:04:00,
2013-05-10 20:09:00,66.4,45.5,30.17,West,270,2.0,14.0,47,0.00,,,0.00,Weather View 32 v70,2013-05-11 01:09:00,
2013-05-10 20:14:00,66.1,45.2,30.17,West,270,3.0,14.0,47,0.00,,,0.00,Weather View 32 v70,2013-05-11 01:14:00,
2013-05-10 20:19:00,65.9,46.2,30.17,West,270,2.0,12.0,49,0.00,,,0.00,Weather View 32 v70,2013-05-11 01:19:00,
2013-05-10 20:24:00,65.6,46.4,30.17,West,270,1.0,12.0,50,0.00,,,0.00,Weather View 32 v70,2013-05-11 01:24:00,
2013-05-10 20:29:00,64.9,45.8,30.17,West,270,1.0,12.0,50,0.00,,,0.00,Weather View 32 v70,2013-05-11 01:29:00,
2013-05-10 20:34:00,64.3,45.7,30.17,West,270,2.0,9.0,51,0.00,,,0.00,Weather View 32 v70,2013-05-11 01:34:00,
2013-05-10 20:39:00,63.7,45.7,30.17,West,270,1.0,9.0,52,0.00,,,0.00,Weather View 32 v70,2013-05-11 01:39:00,
2013-05-10 20:44:00,63.4,45.9,30.17,West,270,2.0,9.0,53,0.00,,,0.00,Weather View 32 v70,2013-05-11 01:44:00,
2013-05-10 20:49:00,63.1,46.6,30.17,West,270,1.0,7.0,55,0.00,,,0.00,Weather View 32 v70,2013-05-11 01:49:00,
2013-05-10 20:54:00,62.6,46.2,30.17,West,270,1.0,7.0,55,0.00,,,0.00,Weather View 32 v70,2013-05-11 01:54:00,
2013-05-10 20:59:00,62.6,46.6,30.17,West,270,1.0,6.0,56,0.00,,,0.00,Weather View 32 v70,2013-05-11 01:59:00,
2013-05-10 21:04:00,62.0,47.0,30.17,West,270,0.0,6.0,58,0.00,,,0.00,Weather View 32 v70,2013-05-11 02:04:00,
2013-05-10 21:09:00,61.6,45.7,30.17,West,270,0.0,6.0,56,0.00,,,0.00,Weather View 32 v70,2013-05-11 02:09:00,
2013-05-10 21:14:00,61.4,46.0,30.17,West,270,1.0,4.0,57,0.00,,,0.00,Weather View 32 v70,2013-05-11 02:14:00,
2013-05-10 21:19:00,61.3,45.4,30.17,West,270,2.0,3.0,56,0.00,,,0.00,Weather View 32 v70,2013-05-11 02:19:00,
2013-05-10 21:24:00,61.3,45.9,30.18,West,270,1.0,2.0,57,0.00,,,0.00,Weather View 32 v70,2013-05-11 02:24:00,
2013-05-10 21:29:00,61.1,47.1,30.18,West,270,0.0,2.0,60,0.00,,,0.00,Weather View 32 v70,2013-05-11 02:29:00,
2013-05-10 21:34:00,60.8,46.3,30.18,West,270,0.0,2.0,59,0.00,,,0.00,Weather View 32 v70,2013-05-11 02:34:00,
2013-05-10 21:39:00,60.7,46.7,30.18,West,270,0.0,2.0,60,0.00,,,0.00,Weather View 32 v70,2013-05-11 02:39:00,
2013-05-10 21:44:00,60.3,46.3,30.18,West,270,0.0,2.0,60,0.00,,,0.00,Weather View 32 v70,2013-05-11 02:44:00,
2013-05-10 21:49:00,60.1,46.1,30.18,West,270,0.0,2.0,60,0.00,,,0.00,Weather View 32 v70,2013-05-11 02:49:00,
2013-05-10 21:54:00,59.9,46.4,30.18,West,270,0.0,2.0,61,0.00,,,0.00,Weather View 32 v70,2013-05-11 02:54:00,
2013-05-10 21:59:00,59.9,46.4,30.18,West,270,0.0,2.0,61,0.00,,,0.00,Weather View 32 v70,2013-05-11 02:59:00,
2013-05-10 22:04:00,59.7,47.1,30.18,West,270,0.0,2.0,63,0.00,,,0.00,Weather View 32 v70,2013-05-11 03:04:00,
2013-05-10 22:09:00,59.4,48.0,30.18,SE,135,2.0,2.0,66,0.00,,,0.00,Weather View 32 v70,2013-05-11 03:09:00,
2013-05-10 22:14:00,59.2,47.0,30.18,SE,135,2.0,2.0,64,0.00,,,0.00,Weather View 32 v70,2013-05-11 03:14:00,
2013-05-10 22:19:00,59.1,46.9,30.18,SE,135,1.0,2.0,64,0.00,,,0.00,Weather View 32 v70,2013-05-11 03:19:00,
2013-05-10 22:24:00,59.1,46.9,30.18,SE,135,1.0,2.0,64,0.00,,,0.00,Weather View 32 v70,2013-05-11 03:24:00,
2013-05-10 22:29:00,58.9,47.1,30.18,SE,135,1.0,2.0,65,0.00,,,0.00,Weather View 32 v70,2013-05-11 03:29:00,
2013-05-10 22:34:00,58.9,46.7,30.17,SE,135,2.0,2.0,64,0.00,,,0.00,Weather View 32 v70,2013-05-11 03:34:00,
2013-05-10 22:39:00,58.7,47.3,30.17,East,90,1.0,2.0,66,0.00,,,0.00,Weather View 32 v70,2013-05-11 03:39:00,
2013-05-10 22:44:00,58.0,47.9,30.17,East,90,2.0,2.0,69,0.00,,,0.00,Weather View 32 v70,2013-05-11 03:44:00,
2013-05-10 22:49:00,57.8,47.7,30.17,East,90,1.0,3.0,69,0.00,,,0.00,Weather View 32 v70,2013-05-11 03:49:00,
2013-05-10 22:54:00,57.8,47.3,30.17,East,90,1.0,3.0,68,0.00,,,0.00,Weather View 32 v70,2013-05-11 03:54:00,
2013-05-10 22:59:00,57.8,47.3,30.17,ESE,112,2.0,3.0,68,0.00,,,0.00,Weather View 32 v70,2013-05-11 03:59:00,
2013-05-10 23:01:00,57.8,47.3,30.17,ESE,112,1.0,3.0,68,0.00,,,0.00,Weather View 32 v70,2013-05-11 04:01:00,
2013-05-10 23:06:00,57.8,47.3,30.17,ESE,112,2.0,3.0,68,0.00,,,0.00,Weather View 32 v70,2013-05-11 04:06:00,
2013-05-10 23:11:00,57.7,47.6,30.17,ESE,112,2.0,3.0,69,0.00,,,0.00,Weather View 32 v70,2013-05-11 04:11:00,
2013-05-10 23:16:00,57.5,47.4,30.16,ESE,112,2.0,3.0,69,0.00,,,0.00,Weather View 32 v70,2013-05-11 04:16:00,
2013-05-10 23:21:00,57.5,47.4,30.17,ESE,112,1.0,3.0,69,0.00,,,0.00,Weather View 32 v70,2013-05-11 04:21:00,
2013-05-10 23:26:00,57.4,47.3,30.17,ESE,112,0.0,3.0,69,0.00,,,0.00,Weather View 32 v70,2013-05-11 04:26:00,
2013-05-10 23:31:00,57.2,49.3,30.17,ESE,112,0.0,3.0,75,0.00,,,0.00,Weather View 32 v70,2013-05-11 04:31:00,
2013-05-10 23:36:00,56.9,47.9,30.17,ESE,112,0.0,3.0,72,0.00,,,0.00,Weather View 32 v70,2013-05-11 04:36:00,
2013-05-10 23:41:00,56.8,48.2,30.17,ESE,112,0.0,3.0,73,0.00,,,0.00,Weather View 32 v70,2013-05-11 04:41:00,
2013-05-10 23:46:00,56.6,47.7,30.17,ESE,112,0.0,2.0,72,0.00,,,0.00,Weather View 32 v70,2013-05-11 04:46:00,
2013-05-10 23:51:00,56.6,48.0,30.18,East,90,0.0,2.0,73,0.00,,,0.00,Weather View 32 v70,2013-05-11 04:51:00,
2013-05-10 23:56:00,56.6,48.4,30.18,NW,315,3.0,5.0,74,0.00,,,0.00,Weather View 32 v70,2013-05-11 04:56:00,